Wolke Sonne

Wetter Ammerndorf

Gehe zu: Roßtal

Tageswerte vom Mittwoch, 19.01.2022

Optionen

Tag:
Erweitert:

Alle Werte vom Mittwoch, 19.01.2022

Einen Moment bitte, die Daten werden aufbereitet...

UhrzeitTemperaturBoden 10cmBoden 20cmFeuchteLuftdruckNiederschlagEvapotranspirationWindWindböenWindrichtungSolarstrahlungUV-IndexSonne?Uhrzeit
Diagramm IconDiagramm IconDiagramm IconDiagramm IconDiagramm IconDiagramm IconDiagramm IconDiagramm IconDiagramm IconDiagramm IconDiagramm IconDiagramm IconDiagramm Icon
00:001,9 °C 3,9 °C 3,9 °C 93 % 1037,4 hPa 0,0 mm - 0,0 km/h 6,5 km/h S 0,0 W/qm 0,0 nein 00:00
00:051,9 °C 3,9 °C 3,9 °C 93 % 1037,3 hPa 0,0 mm 0,0 mm 0,0 km/h 6,5 km/h S 0,0 W/qm 0,0 nein 00:05
00:101,9 °C 3,9 °C 3,9 °C 93 % 1037,2 hPa 0,0 mm 0,0 mm 0,0 km/h 1,4 km/h S 0,0 W/qm 0,0 nein 00:10
00:151,9 °C 3,9 °C 3,9 °C 93 % 1037,1 hPa 0,0 mm - 0,0 km/h 1,4 km/h SO 0,0 W/qm 0,0 nein 00:15
00:201,9 °C 3,9 °C 3,9 °C 92 % 1037,0 hPa 0,0 mm - 1,4 km/h 4,7 km/h SSO 0,0 W/qm 0,0 nein 00:20
00:251,9 °C 3,9 °C 3,9 °C 92 % 1037,0 hPa 0,0 mm - 1,4 km/h 6,5 km/h SSO 0,0 W/qm 0,0 nein 00:25
00:301,9 °C 3,9 °C 3,9 °C 91 % 1036,9 hPa 0,0 mm - 0,0 km/h 6,5 km/h SSO 0,0 W/qm 0,0 nein 00:30
00:352,0 °C 3,9 °C 3,9 °C 91 % 1036,8 hPa 0,0 mm - 1,4 km/h 6,5 km/h S 0,0 W/qm 0,0 nein 00:35
00:402,0 °C 3,9 °C 3,9 °C 90 % 1036,7 hPa 0,0 mm - 1,4 km/h 4,7 km/h S 0,0 W/qm 0,0 nein 00:40
00:452,0 °C 3,9 °C 3,9 °C 90 % 1036,6 hPa 0,0 mm - 0,0 km/h 4,7 km/h S 0,0 W/qm 0,0 nein 00:45
00:502,0 °C 3,9 °C 3,9 °C 89 % 1036,6 hPa 0,0 mm - 0,0 km/h 4,7 km/h OSO 0,0 W/qm 0,0 nein 00:50
00:552,0 °C 3,9 °C 3,9 °C 89 % 1036,6 hPa 0,0 mm - 1,4 km/h 6,5 km/h O 0,0 W/qm 0,0 nein 00:55
01:002,0 °C 3,9 °C 3,9 °C 89 % 1036,5 hPa 0,0 mm - 1,4 km/h 6,5 km/h S 0,0 W/qm 0,0 nein 01:00
01:052,0 °C 3,9 °C 3,9 °C 88 % 1036,5 hPa 0,0 mm 0,0 mm 1,4 km/h 6,5 km/h SSO 0,0 W/qm 0,0 nein 01:05
01:102,0 °C 3,3 °C 3,9 °C 88 % 1036,5 hPa 0,0 mm 0,0 mm 3,2 km/h 7,9 km/h S 0,0 W/qm 0,0 nein 01:10
01:152,1 °C 3,3 °C 3,9 °C 87 % 1036,1 hPa 0,0 mm - 1,4 km/h 16,2 km/h S 0,0 W/qm 0,0 nein 01:15
01:202,1 °C 3,3 °C 3,9 °C 87 % 1035,9 hPa 0,0 mm - 0,0 km/h 16,2 km/h S 0,0 W/qm 0,0 nein 01:20
01:252,1 °C 3,3 °C 3,9 °C 87 % 1035,8 hPa 0,0 mm - 0,0 km/h 16,2 km/h S 0,0 W/qm 0,0 nein 01:25
01:302,1 °C 3,3 °C 3,9 °C 87 % 1035,8 hPa 0,0 mm - 0,0 km/h 3,2 km/h SSO 0,0 W/qm 0,0 nein 01:30
01:352,1 °C 3,3 °C 3,9 °C 87 % 1035,8 hPa 0,0 mm - 1,4 km/h 4,7 km/h S 0,0 W/qm 0,0 nein 01:35
01:402,1 °C 3,3 °C 3,9 °C 86 % 1035,8 hPa 0,0 mm - 1,4 km/h 4,7 km/h SSO 0,0 W/qm 0,0 nein 01:40
01:452,0 °C 3,3 °C 3,9 °C 86 % 1035,6 hPa 0,0 mm - 1,4 km/h 4,7 km/h SSO 0,0 W/qm 0,0 nein 01:45
01:502,0 °C 3,3 °C 3,9 °C 86 % 1035,6 hPa 0,0 mm - 1,4 km/h 7,9 km/h S 0,0 W/qm 0,0 nein 01:50
01:551,9 °C 3,3 °C 3,9 °C 85 % 1035,4 hPa 0,0 mm - 1,4 km/h 7,9 km/h SO 0,0 W/qm 0,0 nein 01:55
UhrzeitTemperaturBoden 10cmBoden 20cmFeuchteLuftdruckNiederschlagEvapotranspirationWindWindböenWindrichtungSolarstrahlungUV-IndexSonne?Uhrzeit
02:001,9 °C 3,3 °C 3,9 °C 85 % 1035,3 hPa 0,0 mm - 1,4 km/h 7,9 km/h S 0,0 W/qm 0,0 nein 02:00
02:051,9 °C 3,3 °C 3,9 °C 85 % 1035,2 hPa 0,0 mm 0,0 mm 1,4 km/h 7,9 km/h SSO 0,0 W/qm 0,0 nein 02:05
02:101,8 °C 3,3 °C 3,9 °C 85 % 1035,2 hPa 0,0 mm 0,0 mm 1,4 km/h 7,9 km/h SSO 0,0 W/qm 0,0 nein 02:10
02:151,7 °C 3,3 °C 3,9 °C 85 % 1035,2 hPa 0,0 mm - 0,0 km/h 6,5 km/h SSO 0,0 W/qm 0,0 nein 02:15
02:201,6 °C 3,3 °C 3,9 °C 85 % 1035,1 hPa 0,0 mm - 0,0 km/h 6,5 km/h SSO 0,0 W/qm 0,0 nein 02:20
02:251,4 °C 3,3 °C 3,9 °C 85 % 1035,1 hPa 0,0 mm - 0,0 km/h 3,2 km/h SSO 0,0 W/qm 0,0 nein 02:25
02:301,3 °C 3,3 °C 3,9 °C 85 % 1035,0 hPa 0,0 mm - 0,0 km/h 3,2 km/h SSO 0,0 W/qm 0,0 nein 02:30
02:351,1 °C 3,3 °C 3,9 °C 85 % 1034,7 hPa 0,0 mm - 0,0 km/h 1,4 km/h SSO 0,0 W/qm 0,0 nein 02:35
02:400,8 °C 3,3 °C 3,9 °C 86 % 1034,7 hPa 0,0 mm - 0,0 km/h 0,0 km/h SSO 0,0 W/qm 0,0 nein 02:40
02:450,7 °C 3,3 °C 3,9 °C 86 % 1034,9 hPa 0,0 mm - 0,0 km/h 0,0 km/h SSO 0,0 W/qm 0,0 nein 02:45
02:500,4 °C 3,3 °C 3,9 °C 86 % 1035,1 hPa 0,0 mm - 0,0 km/h 0,0 km/h SSO 0,0 W/qm 0,0 nein 02:50
02:550,3 °C 3,3 °C 3,9 °C 87 % 1035,0 hPa 0,0 mm - 0,0 km/h 3,2 km/h SSO 0,0 W/qm 0,0 nein 02:55
03:000,1 °C 3,3 °C 3,9 °C 87 % 1035,1 hPa 0,0 mm - 0,0 km/h 3,2 km/h SSO 0,0 W/qm 0,0 nein 03:00
03:05-0,1 °C 3,3 °C 3,9 °C 87 % 1034,9 hPa 0,0 mm 0,0 mm 0,0 km/h 3,2 km/h SSO 0,0 W/qm 0,0 nein 03:05
03:10-0,2 °C 3,3 °C 3,9 °C 87 % 1034,9 hPa 0,0 mm 0,0 mm 0,0 km/h 0,0 km/h SSO 0,0 W/qm 0,0 nein 03:10
03:15-0,4 °C 3,3 °C 3,9 °C 87 % 1035,0 hPa 0,0 mm - 0,0 km/h 0,0 km/h SSO 0,0 W/qm 0,0 nein 03:15
03:20-0,6 °C 3,3 °C 3,9 °C 88 % 1034,9 hPa 0,0 mm - 0,0 km/h 0,0 km/h SSO 0,0 W/qm 0,0 nein 03:20
03:25-0,7 °C 3,3 °C 3,9 °C 88 % 1034,8 hPa 0,0 mm - 0,0 km/h 0,0 km/h SSO 0,0 W/qm 0,0 nein 03:25
03:30-0,8 °C 3,3 °C 3,9 °C 88 % 1034,7 hPa 0,0 mm - 0,0 km/h 0,0 km/h SSO 0,0 W/qm 0,0 nein 03:30
03:35-0,9 °C 3,3 °C 3,9 °C 89 % 1034,6 hPa 0,0 mm - 0,0 km/h 0,0 km/h SSO 0,0 W/qm 0,0 nein 03:35
03:40-1,1 °C 3,3 °C 3,9 °C 89 % 1034,7 hPa 0,0 mm - 0,0 km/h 0,0 km/h SSO 0,0 W/qm 0,0 nein 03:40
03:45-1,2 °C 3,3 °C 3,9 °C 89 % 1034,6 hPa 0,0 mm - 0,0 km/h 0,0 km/h SSO 0,0 W/qm 0,0 nein 03:45
03:50-1,2 °C 3,3 °C 3,9 °C 89 % 1034,5 hPa 0,0 mm - 0,0 km/h 0,0 km/h SSO 0,0 W/qm 0,0 nein 03:50
03:55-1,3 °C 3,3 °C 3,9 °C 90 % 1034,4 hPa 0,0 mm - 0,0 km/h 0,0 km/h SSO 0,0 W/qm 0,0 nein 03:55
UhrzeitTemperaturBoden 10cmBoden 20cmFeuchteLuftdruckNiederschlagEvapotranspirationWindWindböenWindrichtungSolarstrahlungUV-IndexSonne?Uhrzeit
04:00-1,4 °C 3,3 °C 3,9 °C 89 % 1034,4 hPa 0,0 mm - 0,0 km/h 0,0 km/h SSO 0,0 W/qm 0,0 nein 04:00
04:05-1,5 °C 3,3 °C 3,9 °C 89 % 1034,4 hPa 0,0 mm 0,0 mm 0,0 km/h 0,0 km/h SSO 0,0 W/qm 0,0 nein 04:05
04:10-1,6 °C 3,3 °C 3,9 °C 90 % 1034,3 hPa 0,0 mm 0,0 mm 0,0 km/h 0,0 km/h SSO 0,0 W/qm 0,0 nein 04:10
04:15-1,7 °C 3,3 °C 3,9 °C 90 % 1034,3 hPa 0,0 mm - 0,0 km/h 0,0 km/h SSO 0,0 W/qm 0,0 nein 04:15
04:20-1,8 °C 3,3 °C 3,9 °C 90 % 1034,3 hPa 0,0 mm - 0,0 km/h 0,0 km/h SSO 0,0 W/qm 0,0 nein 04:20
04:25-1,9 °C 3,3 °C 3,9 °C 90 % 1034,3 hPa 0,0 mm - 0,0 km/h 0,0 km/h SSO 0,0 W/qm 0,0 nein 04:25
04:30-2,0 °C 3,3 °C 3,9 °C 90 % 1034,2 hPa 0,0 mm - 0,0 km/h 0,0 km/h SSO 0,0 W/qm 0,0 nein 04:30
04:35-2,1 °C 3,3 °C 3,9 °C 90 % 1034,2 hPa 0,0 mm - 0,0 km/h 0,0 km/h SSO 0,0 W/qm 0,0 nein 04:35
04:40-2,1 °C 3,3 °C 3,9 °C 90 % 1034,3 hPa 0,0 mm - 0,0 km/h 0,0 km/h SSO 0,0 W/qm 0,0 nein 04:40
04:45-2,2 °C 3,3 °C 3,9 °C 90 % 1034,2 hPa 0,0 mm - 0,0 km/h 0,0 km/h SSO 0,0 W/qm 0,0 nein 04:45
04:50-2,2 °C 3,3 °C 3,9 °C 91 % 1034,3 hPa 0,0 mm - 0,0 km/h 0,0 km/h SSO 0,0 W/qm 0,0 nein 04:50
04:55-2,2 °C 3,3 °C 3,9 °C 91 % 1034,2 hPa 0,0 mm - 0,0 km/h 0,0 km/h SSO 0,0 W/qm 0,0 nein 04:55
05:00-2,3 °C 3,3 °C 3,9 °C 91 % 1034,3 hPa 0,0 mm - 0,0 km/h 0,0 km/h SSO 0,0 W/qm 0,0 nein 05:00
05:05-2,3 °C 3,3 °C 3,9 °C 91 % 1034,3 hPa 0,0 mm 0,0 mm 0,0 km/h 0,0 km/h SSO 0,0 W/qm 0,0 nein 05:05
05:10-2,4 °C 3,3 °C 3,9 °C 91 % 1034,2 hPa 0,0 mm 0,0 mm 0,0 km/h 0,0 km/h SSO 0,0 W/qm 0,0 nein 05:10
05:15-2,5 °C 3,3 °C 3,9 °C 91 % 1034,3 hPa 0,0 mm - 0,0 km/h 0,0 km/h SSO 0,0 W/qm 0,0 nein 05:15
05:20-2,6 °C 3,3 °C 3,9 °C 91 % 1034,2 hPa 0,0 mm - 0,0 km/h 0,0 km/h SSO 0,0 W/qm 0,0 nein 05:20
05:25-2,6 °C 3,3 °C 3,9 °C 91 % 1034,2 hPa 0,0 mm - 0,0 km/h 0,0 km/h SSO 0,0 W/qm 0,0 nein 05:25
05:30-2,7 °C 3,3 °C 3,9 °C 91 % 1034,1 hPa 0,0 mm - 0,0 km/h 0,0 km/h SSO 0,0 W/qm 0,0 nein 05:30
05:35-2,7 °C 3,3 °C 3,9 °C 91 % 1034,0 hPa 0,0 mm - 0,0 km/h 0,0 km/h SSO 0,0 W/qm 0,0 nein 05:35
05:40-2,8 °C 3,3 °C 3,9 °C 91 % 1033,9 hPa 0,0 mm - 0,0 km/h 0,0 km/h SSO 0,0 W/qm 0,0 nein 05:40
05:45-2,9 °C 3,3 °C 3,9 °C 91 % 1033,9 hPa 0,0 mm - 0,0 km/h 0,0 km/h SSO 0,0 W/qm 0,0 nein 05:45
05:50-2,9 °C 3,3 °C 3,9 °C 91 % 1033,8 hPa 0,0 mm - 0,0 km/h 0,0 km/h SSO 0,0 W/qm 0,0 nein 05:50
05:55-3,0 °C 3,3 °C 3,9 °C 91 % 1033,7 hPa 0,0 mm - 0,0 km/h 0,0 km/h SSO 0,0 W/qm 0,0 nein 05:55
UhrzeitTemperaturBoden 10cmBoden 20cmFeuchteLuftdruckNiederschlagEvapotranspirationWindWindböenWindrichtungSolarstrahlungUV-IndexSonne?Uhrzeit
06:00-3,1 °C 3,3 °C 3,9 °C 91 % 1033,6 hPa 0,0 mm - 0,0 km/h 0,0 km/h SSO 0,0 W/qm 0,0 nein 06:00
06:05-3,2 °C 3,3 °C 3,9 °C 91 % 1033,5 hPa 0,0 mm 0,0 mm 0,0 km/h 0,0 km/h SSO 0,0 W/qm 0,0 nein 06:05
06:10-3,2 °C 3,3 °C 3,9 °C 91 % 1033,5 hPa 0,0 mm 0,0 mm 0,0 km/h 0,0 km/h SSO 0,0 W/qm 0,0 nein 06:10
06:15-3,3 °C 3,3 °C 3,9 °C 91 % 1033,6 hPa 0,0 mm - 0,0 km/h 0,0 km/h SSO 0,0 W/qm 0,0 nein 06:15
06:20-3,3 °C 3,3 °C 3,9 °C 91 % 1033,4 hPa 0,0 mm - 0,0 km/h 0,0 km/h SSO 0,0 W/qm 0,0 nein 06:20
06:25-3,3 °C 3,3 °C 3,9 °C 92 % 1033,4 hPa 0,0 mm - 0,0 km/h 0,0 km/h SSO 0,0 W/qm 0,0 nein 06:25
06:30-3,4 °C 3,3 °C 3,9 °C 91 % 1033,5 hPa 0,0 mm - 0,0 km/h 0,0 km/h SSO 0,0 W/qm 0,0 nein 06:30
06:35-3,4 °C 3,3 °C 3,9 °C 92 % 1033,4 hPa 0,0 mm - 0,0 km/h 0,0 km/h SSO 0,0 W/qm 0,0 nein 06:35
06:40-3,4 °C 3,3 °C 3,9 °C 92 % 1033,4 hPa 0,0 mm - 0,0 km/h 0,0 km/h SSO 0,0 W/qm 0,0 nein 06:40
06:45-3,3 °C 3,3 °C 3,9 °C 92 % 1033,2 hPa 0,0 mm - 0,0 km/h 0,0 km/h SSO 0,0 W/qm 0,0 nein 06:45
06:50-3,3 °C 3,3 °C 3,9 °C 92 % 1033,1 hPa 0,0 mm - 0,0 km/h 0,0 km/h SSO 0,0 W/qm 0,0 nein 06:50
06:55-3,3 °C 3,3 °C 3,9 °C 92 % 1033,0 hPa 0,0 mm - 0,0 km/h 0,0 km/h SSO 0,0 W/qm 0,0 nein 06:55
07:00-3,2 °C 3,3 °C 3,9 °C 92 % 1033,0 hPa 0,0 mm - 0,0 km/h 0,0 km/h SSO 0,0 W/qm 0,0 nein 07:00
07:05-3,1 °C 3,3 °C 3,9 °C 92 % 1032,9 hPa 0,0 mm 0,0 mm 0,0 km/h 0,0 km/h SSO 0,0 W/qm 0,0 nein 07:05
07:10-3,0 °C 3,3 °C 3,9 °C 93 % 1032,8 hPa 0,0 mm 0,0 mm 0,0 km/h 0,0 km/h SSO 0,0 W/qm 0,0 nein 07:10
07:15-2,9 °C 3,3 °C 3,9 °C 93 % 1032,5 hPa 0,0 mm - 0,0 km/h 0,0 km/h SSO 0,0 W/qm 0,0 nein 07:15
07:20-2,9 °C 3,3 °C 3,9 °C 93 % 1032,4 hPa 0,0 mm - 0,0 km/h 0,0 km/h SSO 0,0 W/qm 0,0 nein 07:20
07:25-2,9 °C 2,8 °C 3,9 °C 93 % 1032,4 hPa 0,0 mm - 0,0 km/h 0,0 km/h SSO 0,0 W/qm 0,0 nein 07:25
07:30-2,9 °C 2,8 °C 3,9 °C 93 % 1032,4 hPa 0,0 mm - 0,0 km/h 0,0 km/h SSO 0,0 W/qm 0,0 nein 07:30
07:35-2,9 °C 2,8 °C 3,9 °C 93 % 1032,3 hPa 0,0 mm - 0,0 km/h 0,0 km/h SSO 0,0 W/qm 0,0 nein 07:35
07:40-2,9 °C 2,8 °C 3,9 °C 93 % 1032,2 hPa 0,0 mm - 0,0 km/h 0,0 km/h SSO 0,0 W/qm 0,0 nein 07:40
07:45-2,9 °C 2,8 °C 3,9 °C 93 % 1032,1 hPa 0,0 mm - 0,0 km/h 0,0 km/h SSO 0,0 W/qm 0,0 nein 07:45
07:50-3,0 °C 2,8 °C 3,9 °C 93 % 1032,1 hPa 0,0 mm - 0,0 km/h 0,0 km/h SSO 0,0 W/qm 0,0 nein 07:50
07:55-3,1 °C 2,8 °C 3,9 °C 93 % 1031,9 hPa 0,0 mm - 0,0 km/h 0,0 km/h SSO 0,0 W/qm 0,0 nein 07:55
UhrzeitTemperaturBoden 10cmBoden 20cmFeuchteLuftdruckNiederschlagEvapotranspirationWindWindböenWindrichtungSolarstrahlungUV-IndexSonne?Uhrzeit
08:00-3,1 °C 2,8 °C 3,9 °C 93 % 1031,7 hPa 0,0 mm - 1,4 km/h 0,0 km/h WNW 5,0 W/qm 0,0 nein 08:00
08:05-3,1 °C 2,8 °C 3,9 °C 93 % 1031,6 hPa 0,0 mm 0,0 mm 1,4 km/h 6,5 km/h NW 5,0 W/qm 0,0 nein 08:05
08:10-3,1 °C 2,8 °C 3,9 °C 93 % 1031,6 hPa 0,0 mm 0,0 mm 1,4 km/h 6,5 km/h NO 7,0 W/qm 0,0 nein 08:10
08:15-3,1 °C 2,8 °C 3,9 °C 93 % 1031,6 hPa 0,0 mm - 1,4 km/h 6,5 km/h S 11,0 W/qm 0,0 nein 08:15
08:20-3,2 °C 2,8 °C 3,9 °C 93 % 1031,7 hPa 0,0 mm - 1,4 km/h 4,7 km/h SSW 12,0 W/qm 0,0 nein 08:20
08:25-3,2 °C 2,8 °C 3,9 °C 93 % 1031,6 hPa 0,0 mm - 1,4 km/h 4,7 km/h SSW 14,0 W/qm 0,0 nein 08:25
08:30-3,1 °C 2,8 °C 3,9 °C 93 % 1031,5 hPa 0,0 mm - 1,4 km/h 7,9 km/h SSW 16,0 W/qm 0,0 nein 08:30
08:35-3,1 °C 2,8 °C 3,9 °C 93 % 1031,3 hPa 0,0 mm - 1,4 km/h 7,9 km/h SSW 18,0 W/qm 0,0 nein 08:35
08:40-3,1 °C 2,8 °C 3,9 °C 93 % 1031,3 hPa 0,0 mm - 0,0 km/h 4,7 km/h SSW 23,0 W/qm 0,0 nein 08:40
08:45-3,1 °C 2,8 °C 3,9 °C 93 % 1031,3 hPa 0,0 mm - 1,4 km/h 3,2 km/h SW 26,0 W/qm 0,0 nein 08:45
08:50-3,1 °C 2,8 °C 3,9 °C 93 % 1031,3 hPa 0,0 mm - 3,2 km/h 6,5 km/h SW 35,0 W/qm 0,0 nein 08:50
08:55-3,0 °C 2,8 °C 3,9 °C 93 % 1031,4 hPa 0,0 mm - 1,4 km/h 6,5 km/h SW 47,0 W/qm 0,0 nein 08:55
09:00-2,9 °C 2,8 °C 3,9 °C 93 % 1031,3 hPa 0,0 mm - 0,0 km/h 6,5 km/h SW 69,0 W/qm 0,0 nein 09:00
09:05-2,8 °C 2,8 °C 3,9 °C 93 % 1031,3 hPa 0,0 mm 0,0 mm 0,0 km/h 4,7 km/h SW 90,0 W/qm 0,0 nein 09:05
09:10-2,7 °C 2,8 °C 3,9 °C 93 % 1031,3 hPa 0,0 mm 0,0 mm 1,4 km/h 0,0 km/h SW 97,0 W/qm 0,0 nein 09:10
09:15-2,6 °C 2,8 °C 3,9 °C 94 % 1031,1 hPa 0,0 mm - 1,4 km/h 4,7 km/h SW 100,0 W/qm 0,0 nein 09:15
09:20-2,4 °C 2,8 °C 3,9 °C 94 % 1031,1 hPa 0,0 mm - 1,4 km/h 4,7 km/h SW 104,0 W/qm 0,0 nein 09:20
09:25-2,1 °C 2,8 °C 3,9 °C 94 % 1031,0 hPa 0,0 mm - 3,2 km/h 6,5 km/h SW 111,0 W/qm 0,0 ja 09:25
09:30-1,9 °C 2,8 °C 3,9 °C 94 % 1030,9 hPa 0,0 mm - 1,4 km/h 6,5 km/h SW 118,0 W/qm 0,0 ja 09:30
09:35-1,7 °C 2,8 °C 3,9 °C 94 % 1030,9 hPa 0,0 mm - 1,4 km/h 6,5 km/h SW 128,0 W/qm 0,0 ja 09:35
09:40-1,5 °C 2,8 °C 3,9 °C 94 % 1030,9 hPa 0,0 mm - 0,0 km/h 4,7 km/h SW 139,0 W/qm 0,0 ja 09:40
09:45-1,3 °C 2,8 °C 3,9 °C 94 % 1030,7 hPa 0,0 mm - 0,0 km/h 4,7 km/h SSO 144,0 W/qm 0,0 ja 09:45
09:50-1,1 °C 2,8 °C 3,9 °C 94 % 1030,7 hPa 0,0 mm - 1,4 km/h 3,2 km/h SSO 162,0 W/qm 0,0 ja 09:50
09:55-0,7 °C 2,8 °C 3,9 °C 94 % 1030,6 hPa 0,0 mm - 3,2 km/h 6,5 km/h SSO 153,0 W/qm 0,0 ja 09:55
UhrzeitTemperaturBoden 10cmBoden 20cmFeuchteLuftdruckNiederschlagEvapotranspirationWindWindböenWindrichtungSolarstrahlungUV-IndexSonne?Uhrzeit
10:00-0,4 °C 2,8 °C 3,9 °C 94 % 1030,5 hPa 0,0 mm - 3,2 km/h 6,5 km/h SSO 149,0 W/qm 0,0 ja 10:00
10:05-0,3 °C 2,8 °C 3,9 °C 93 % 1030,6 hPa 0,0 mm 0,0 mm 3,2 km/h 6,5 km/h S 107,0 W/qm 0,0 ja 10:05
10:10-0,3 °C 2,8 °C 3,9 °C 93 % 1030,5 hPa 0,0 mm 0,0 mm 3,2 km/h 7,9 km/h S 88,0 W/qm 0,0 nein 10:10
10:15-0,2 °C 2,8 °C 3,9 °C 92 % 1030,4 hPa 0,0 mm - 3,2 km/h 7,9 km/h SSO 107,0 W/qm 0,0 ja 10:15
10:20-0,1 °C 2,8 °C 3,9 °C 91 % 1030,3 hPa 0,0 mm - 3,2 km/h 9,7 km/h SSW 98,0 W/qm 0,0 nein 10:20
10:25-0,1 °C 2,8 °C 3,9 °C 91 % 1030,3 hPa 0,0 mm - 3,2 km/h 9,7 km/h S 95,0 W/qm 0,0 nein 10:25
10:300,0 °C 2,8 °C 3,9 °C 91 % 1030,2 hPa 0,0 mm - 3,2 km/h 9,7 km/h S 95,0 W/qm 0,0 nein 10:30
10:350,1 °C 2,8 °C 3,9 °C 90 % 1030,0 hPa 0,0 mm - 4,7 km/h 7,9 km/h SSO 109,0 W/qm 0,0 ja 10:35
10:400,1 °C 2,8 °C 3,3 °C 90 % 1029,9 hPa 0,0 mm - 4,7 km/h 7,9 km/h S 118,0 W/qm 0,0 ja 10:40
10:450,2 °C 2,8 °C 3,3 °C 90 % 1029,8 hPa 0,0 mm - 4,7 km/h 13,0 km/h SSO 128,0 W/qm 0,0 ja 10:45
10:500,1 °C 2,8 °C 3,3 °C 89 % 1029,8 hPa 0,0 mm - 4,7 km/h 13,0 km/h SSW 97,0 W/qm 0,0 nein 10:50
10:550,2 °C 2,8 °C 3,3 °C 89 % 1029,9 hPa 0,0 mm - 6,5 km/h 13,0 km/h S 77,0 W/qm 0,0 nein 10:55
11:000,1 °C 2,8 °C 3,3 °C 89 % 1029,8 hPa 0,0 mm - 7,9 km/h 16,2 km/h S 62,0 W/qm 0,0 nein 11:00
11:050,1 °C 2,8 °C 3,3 °C 89 % 1029,9 hPa 0,0 mm 0,1 mm 6,5 km/h 16,2 km/h S 63,0 W/qm 0,0 nein 11:05
11:100,1 °C 2,8 °C 3,3 °C 89 % 1029,9 hPa 0,0 mm 0,1 mm 6,5 km/h 16,2 km/h SW 67,0 W/qm 0,0 nein 11:10
11:150,1 °C 2,8 °C 3,3 °C 89 % 1029,9 hPa 0,0 mm - 7,9 km/h 16,2 km/h SSW 58,0 W/qm 0,0 nein 11:15
11:200,1 °C 2,8 °C 3,3 °C 89 % 1029,9 hPa 0,0 mm - 7,9 km/h 14,4 km/h S 49,0 W/qm 0,0 nein 11:20
11:250,1 °C 2,8 °C 3,3 °C 89 % 1029,7 hPa 0,0 mm - 7,9 km/h 14,4 km/h S 49,0 W/qm 0,0 nein 11:25
11:300,1 °C 2,8 °C 3,3 °C 89 % 1029,6 hPa 0,0 mm - 7,9 km/h 16,2 km/h SSW 53,0 W/qm 0,0 nein 11:30
11:350,1 °C 2,8 °C 3,3 °C 89 % 1029,6 hPa 0,0 mm - 6,5 km/h 16,2 km/h SSW 60,0 W/qm 0,0 nein 11:35
11:400,1 °C 2,8 °C 3,3 °C 89 % 1029,5 hPa 0,0 mm - 6,5 km/h 16,2 km/h S 51,0 W/qm 0,0 nein 11:40
11:450,1 °C 2,8 °C 3,3 °C 89 % 1029,5 hPa 0,0 mm - 7,9 km/h 16,2 km/h S 51,0 W/qm 0,0 nein 11:45
11:500,1 °C 2,8 °C 3,3 °C 89 % 1029,4 hPa 0,0 mm - 9,7 km/h 16,2 km/h S 51,0 W/qm 0,0 nein 11:50
11:550,1 °C 2,8 °C 3,3 °C 88 % 1029,4 hPa 0,0 mm - 7,9 km/h 16,2 km/h SW 51,0 W/qm 0,0 nein 11:55
UhrzeitTemperaturBoden 10cmBoden 20cmFeuchteLuftdruckNiederschlagEvapotranspirationWindWindböenWindrichtungSolarstrahlungUV-IndexSonne?Uhrzeit
12:000,0 °C 2,8 °C 3,3 °C 88 % 1029,4 hPa 0,0 mm - 9,7 km/h 16,2 km/h SSW 58,0 W/qm 0,0 nein 12:00
12:050,0 °C 2,8 °C 3,3 °C 88 % 1029,4 hPa 0,0 mm 0,1 mm 9,7 km/h 14,4 km/h SSW 60,0 W/qm 0,0 nein 12:05
12:10-0,1 °C 2,8 °C 3,3 °C 88 % 1029,3 hPa 0,0 mm 0,1 mm 7,9 km/h 16,2 km/h S 58,0 W/qm 0,0 nein 12:10
12:15-0,1 °C 2,8 °C 3,3 °C 88 % 1029,2 hPa 0,0 mm - 6,5 km/h 16,2 km/h SSW 70,0 W/qm 0,0 nein 12:15
12:20-0,1 °C 2,8 °C 3,3 °C 88 % 1029,2 hPa 0,0 mm - 4,7 km/h 16,2 km/h SSW 74,0 W/qm 0,0 nein 12:20
12:250,0 °C 2,8 °C 3,3 °C 88 % 1029,1 hPa 0,0 mm - 6,5 km/h 14,4 km/h SSW 74,0 W/qm 0,0 nein 12:25
12:300,0 °C 2,8 °C 3,3 °C 88 % 1028,9 hPa 0,0 mm - 6,5 km/h 13,0 km/h SSW 107,0 W/qm 0,0 ja 12:30
12:350,0 °C 2,8 °C 3,3 °C 88 % 1028,7 hPa 0,0 mm - 6,5 km/h 13,0 km/h SSW 114,0 W/qm 0,0 ja 12:35
12:400,1 °C 2,8 °C 3,3 °C 88 % 1028,6 hPa 0,0 mm - 6,5 km/h 13,0 km/h SW 120,0 W/qm 0,0 ja 12:40
12:450,1 °C 2,8 °C 3,3 °C 88 % 1028,4 hPa 0,0 mm - 6,5 km/h 14,4 km/h SW 134,0 W/qm 0,0 ja 12:45
12:500,3 °C 2,8 °C 3,3 °C 88 % 1028,3 hPa 0,0 mm - 6,5 km/h 14,4 km/h SSW 162,0 W/qm 0,5 ja 12:50
12:550,3 °C 2,8 °C 3,3 °C 88 % 1028,0 hPa 0,0 mm - 4,7 km/h 11,2 km/h S 162,0 W/qm 0,5 ja 12:55
13:000,5 °C 2,8 °C 3,3 °C 87 % 1028,0 hPa 0,0 mm - 3,2 km/h 11,2 km/h SW 181,0 W/qm 0,5 ja 13:00
13:050,4 °C 2,8 °C 3,3 °C 87 % 1028,0 hPa 0,0 mm 0,1 mm 3,2 km/h 9,7 km/h SW 156,0 W/qm 0,5 ja 13:05
13:100,4 °C 2,8 °C 3,3 °C 87 % 1027,9 hPa 0,0 mm 0,1 mm 4,7 km/h 11,2 km/h WSW 142,0 W/qm 0,5 ja 13:10
13:150,5 °C 2,8 °C 3,3 °C 87 % 1027,7 hPa 0,0 mm - 4,7 km/h 11,2 km/h SW 165,0 W/qm 0,5 ja 13:15
13:200,7 °C 2,8 °C 3,3 °C 87 % 1027,6 hPa 0,0 mm - 3,2 km/h 11,2 km/h S 156,0 W/qm 0,5 ja 13:20
13:250,7 °C 2,8 °C 3,3 °C 86 % 1027,7 hPa 0,0 mm - 4,7 km/h 9,7 km/h SSW 123,0 W/qm 0,0 ja 13:25
13:300,6 °C 2,8 °C 3,3 °C 86 % 1027,6 hPa 0,0 mm - 6,5 km/h 9,7 km/h S 120,0 W/qm 0,0 ja 13:30
13:350,6 °C 2,8 °C 3,3 °C 86 % 1027,5 hPa 0,0 mm - 4,7 km/h 9,7 km/h SSW 109,0 W/qm 0,0 ja 13:35
13:400,7 °C 2,8 °C 3,3 °C 86 % 1027,5 hPa 0,0 mm - 3,2 km/h 11,2 km/h SSW 107,0 W/qm 0,0 ja 13:40
13:450,7 °C 2,8 °C 3,3 °C 86 % 1027,5 hPa 0,0 mm - 3,2 km/h 11,2 km/h S 111,0 W/qm 0,0 ja 13:45
13:500,8 °C 2,8 °C 3,3 °C 86 % 1027,4 hPa 0,0 mm - 4,7 km/h 11,2 km/h S 104,0 W/qm 0,0 nein 13:50
13:550,9 °C 2,8 °C 3,3 °C 86 % 1027,3 hPa 0,0 mm - 4,7 km/h 11,2 km/h S 107,0 W/qm 0,0 ja 13:55
UhrzeitTemperaturBoden 10cmBoden 20cmFeuchteLuftdruckNiederschlagEvapotranspirationWindWindböenWindrichtungSolarstrahlungUV-IndexSonne?Uhrzeit
14:001,0 °C 2,8 °C 3,3 °C 86 % 1027,2 hPa 0,0 mm - 3,2 km/h 11,2 km/h WSW 113,0 W/qm 0,0 ja 14:00
14:051,1 °C 2,8 °C 3,3 °C 86 % 1027,1 hPa 0,0 mm 0,2 mm 1,4 km/h 9,7 km/h SW 97,0 W/qm 0,0 nein 14:05
14:101,1 °C 2,8 °C 3,3 °C 86 % 1027,0 hPa 0,0 mm 0,2 mm 3,2 km/h 7,9 km/h SW 88,0 W/qm 0,0 nein 14:10
14:151,1 °C 2,8 °C 3,3 °C 86 % 1027,0 hPa 0,0 mm - 3,2 km/h 7,9 km/h SSO 95,0 W/qm 0,0 nein 14:15
14:201,2 °C 2,8 °C 3,3 °C 86 % 1026,9 hPa 0,0 mm - 1,4 km/h 7,9 km/h SW 102,0 W/qm 0,0 nein 14:20
14:251,3 °C 2,8 °C 3,3 °C 86 % 1026,8 hPa 0,0 mm - 3,2 km/h 7,9 km/h WSW 67,0 W/qm 0,0 nein 14:25
14:301,4 °C 2,8 °C 3,3 °C 86 % 1026,6 hPa 0,0 mm - 3,2 km/h 7,9 km/h SSW 60,0 W/qm 0,0 nein 14:30
14:351,5 °C 2,8 °C 3,3 °C 86 % 1026,6 hPa 0,0 mm - 1,4 km/h 7,9 km/h SSO 63,0 W/qm 0,0 nein 14:35
14:401,6 °C 2,8 °C 3,3 °C 85 % 1026,3 hPa 0,0 mm - 1,4 km/h 6,5 km/h S 214,0 W/qm 0,0 ja 14:40
14:451,9 °C 2,8 °C 3,3 °C 85 % 1026,3 hPa 0,0 mm - 1,4 km/h 6,5 km/h WSW 162,0 W/qm 0,0 ja 14:45
14:502,2 °C 2,8 °C 3,3 °C 85 % 1026,1 hPa 0,0 mm - 3,2 km/h 7,9 km/h SSW 144,0 W/qm 0,0 ja 14:50
14:552,4 °C 2,8 °C 3,3 °C 84 % 1026,1 hPa 0,0 mm - 6,5 km/h 7,9 km/h S 135,0 W/qm 0,0 ja 14:55
15:002,4 °C 2,8 °C 3,3 °C 84 % 1025,9 hPa 0,0 mm - 6,5 km/h 11,2 km/h WSW 113,0 W/qm 0,0 ja 15:00
15:052,3 °C 2,8 °C 3,3 °C 84 % 1025,9 hPa 0,0 mm 0,2 mm 6,5 km/h 11,2 km/h S 67,0 W/qm 0,0 nein 15:05
15:102,2 °C 2,8 °C 3,3 °C 84 % 1025,9 hPa 0,0 mm 0,2 mm 6,5 km/h 11,2 km/h S 86,0 W/qm 0,0 nein 15:10
15:152,2 °C 2,8 °C 3,3 °C 83 % 1025,9 hPa 0,0 mm - 6,5 km/h 11,2 km/h S 70,0 W/qm 0,0 nein 15:15
15:202,2 °C 2,8 °C 3,3 °C 84 % 1025,8 hPa 0,0 mm - 4,7 km/h 11,2 km/h S 53,0 W/qm 0,0 nein 15:20
15:252,2 °C 2,8 °C 3,3 °C 84 % 1025,7 hPa 0,0 mm - 4,7 km/h 11,2 km/h S 33,0 W/qm 0,0 nein 15:25
15:302,2 °C 2,8 °C 3,3 °C 84 % 1025,6 hPa 0,0 mm - 6,5 km/h 9,7 km/h WSW 30,0 W/qm 0,0 nein 15:30
15:352,2 °C 2,8 °C 3,3 °C 84 % 1025,5 hPa 0,0 mm - 6,5 km/h 9,7 km/h S 28,0 W/qm 0,0 nein 15:35
15:402,2 °C 2,8 °C 3,3 °C 84 % 1025,4 hPa 0,0 mm - 4,7 km/h 11,2 km/h S 33,0 W/qm 0,0 nein 15:40
15:452,2 °C 2,8 °C 3,3 °C 84 % 1025,3 hPa 0,0 mm - 4,7 km/h 11,2 km/h S 32,0 W/qm 0,0 nein 15:45
15:502,2 °C 2,8 °C 3,3 °C 84 % 1025,3 hPa 0,0 mm - 4,7 km/h 11,2 km/h WSW 25,0 W/qm 0,0 nein 15:50
15:552,2 °C 2,8 °C 3,3 °C 84 % 1025,3 hPa 0,0 mm - 4,7 km/h 9,7 km/h S 21,0 W/qm 0,0 nein 15:55
UhrzeitTemperaturBoden 10cmBoden 20cmFeuchteLuftdruckNiederschlagEvapotranspirationWindWindböenWindrichtungSolarstrahlungUV-IndexSonne?Uhrzeit
16:002,2 °C 2,8 °C 3,3 °C 84 % 1025,3 hPa 0,0 mm - 3,2 km/h 9,7 km/h S 16,0 W/qm 0,0 nein 16:00
16:052,2 °C 2,8 °C 3,3 °C 85 % 1025,3 hPa 0,0 mm 0,3 mm 1,4 km/h 9,7 km/h S 12,0 W/qm 0,0 nein 16:05
16:102,2 °C 2,8 °C 3,3 °C 85 % 1025,3 hPa 0,0 mm 0,3 mm 1,4 km/h 9,7 km/h SSW 11,0 W/qm 0,0 nein 16:10
16:152,2 °C 2,8 °C 3,3 °C 85 % 1025,2 hPa 0,0 mm - 1,4 km/h 9,7 km/h WSW 11,0 W/qm 0,0 nein 16:15
16:202,3 °C 2,8 °C 3,3 °C 85 % 1025,2 hPa 0,0 mm - 1,4 km/h 7,9 km/h SSW 7,0 W/qm 0,0 nein 16:20
16:252,3 °C 2,8 °C 3,3 °C 85 % 1025,1 hPa 0,0 mm - 3,2 km/h 9,7 km/h SSW 5,0 W/qm 0,0 nein 16:25
16:302,3 °C 2,8 °C 3,3 °C 85 % 1025,1 hPa 0,0 mm - 3,2 km/h 9,7 km/h SW 5,0 W/qm 0,0 nein 16:30
16:352,3 °C 2,8 °C 3,3 °C 85 % 1025,1 hPa 0,0 mm - 3,2 km/h 9,7 km/h W 5,0 W/qm 0,0 nein 16:35
16:402,4 °C 2,8 °C 3,3 °C 85 % 1025,1 hPa 0,0 mm - 4,7 km/h 13,0 km/h SSW 0,0 W/qm 0,0 nein 16:40
16:452,4 °C 2,8 °C 3,3 °C 85 % 1025,1 hPa 0,0 mm - 3,2 km/h 13,0 km/h W 0,0 W/qm 0,0 nein 16:45
16:502,4 °C 2,8 °C 3,3 °C 84 % 1025,0 hPa 0,0 mm - 1,4 km/h 13,0 km/h SSO 0,0 W/qm 0,0 nein 16:50
16:552,4 °C 2,8 °C 3,3 °C 84 % 1024,9 hPa 0,0 mm - 1,4 km/h 9,7 km/h S 0,0 W/qm 0,0 nein 16:55
17:002,4 °C 2,8 °C 3,3 °C 84 % 1024,9 hPa 0,0 mm - 3,2 km/h 13,0 km/h SSW 0,0 W/qm 0,0 nein 17:00
17:052,4 °C 2,8 °C 3,3 °C 84 % 1025,0 hPa 0,0 mm 0,3 mm 4,7 km/h 13,0 km/h WSW 0,0 W/qm 0,0 nein 17:05
17:102,4 °C 2,8 °C 3,3 °C 84 % 1024,9 hPa 0,0 mm 0,3 mm 4,7 km/h 13,0 km/h S 0,0 W/qm 0,0 nein 17:10
17:152,4 °C 2,8 °C 3,3 °C 84 % 1024,9 hPa 0,0 mm - 3,2 km/h 13,0 km/h SW 0,0 W/qm 0,0 nein 17:15
17:202,4 °C 2,8 °C 3,3 °C 84 % 1024,9 hPa 0,0 mm - 6,5 km/h 13,0 km/h SSO 0,0 W/qm 0,0 nein 17:20
17:252,5 °C 2,8 °C 3,3 °C 84 % 1024,9 hPa 0,0 mm - 7,9 km/h 20,9 km/h SW 0,0 W/qm 0,0 nein 17:25
17:302,5 °C 2,8 °C 3,3 °C 84 % 1024,9 hPa 0,0 mm - 6,5 km/h 20,9 km/h WSW 0,0 W/qm 0,0 nein 17:30
17:352,5 °C 2,8 °C 3,3 °C 83 % 1024,9 hPa 0,0 mm - 7,9 km/h 20,9 km/h SW 0,0 W/qm 0,0 nein 17:35
17:402,5 °C 2,8 °C 3,3 °C 83 % 1024,8 hPa 0,0 mm - 9,7 km/h 17,6 km/h S 0,0 W/qm 0,0 nein 17:40
17:452,5 °C 2,8 °C 3,3 °C 83 % 1024,8 hPa 0,0 mm - 7,9 km/h 17,6 km/h SSW 0,0 W/qm 0,0 nein 17:45
17:502,4 °C 2,8 °C 3,3 °C 84 % 1024,8 hPa 0,0 mm - 7,9 km/h 19,4 km/h SW 0,0 W/qm 0,0 nein 17:50
17:552,4 °C 2,8 °C 3,3 °C 84 % 1024,8 hPa 0,0 mm - 9,7 km/h 20,9 km/h WSW 0,0 W/qm 0,0 nein 17:55
UhrzeitTemperaturBoden 10cmBoden 20cmFeuchteLuftdruckNiederschlagEvapotranspirationWindWindböenWindrichtungSolarstrahlungUV-IndexSonne?Uhrzeit
18:002,4 °C 2,8 °C 3,3 °C 84 % 1024,8 hPa 0,0 mm - 9,7 km/h 24,1 km/h S 0,0 W/qm 0,0 nein 18:00
18:052,3 °C 2,8 °C 3,3 °C 84 % 1024,7 hPa 0,0 mm 0,3 mm 9,7 km/h 24,1 km/h SSO 0,0 W/qm 0,0 nein 18:05
18:102,3 °C 2,8 °C 3,3 °C 84 % 1024,6 hPa 0,0 mm 0,3 mm 7,9 km/h 24,1 km/h S 0,0 W/qm 0,0 nein 18:10
18:152,3 °C 2,8 °C 3,3 °C 84 % 1024,4 hPa 0,0 mm - 6,5 km/h 20,9 km/h SSW 0,0 W/qm 0,0 nein 18:15
18:202,3 °C 2,8 °C 3,3 °C 84 % 1024,4 hPa 0,0 mm - 7,9 km/h 19,4 km/h SSW 0,0 W/qm 0,0 nein 18:20
18:252,3 °C 2,8 °C 3,3 °C 84 % 1024,2 hPa 0,0 mm - 7,9 km/h 19,4 km/h SSW 0,0 W/qm 0,0 nein 18:25
18:302,2 °C 2,8 °C 3,3 °C 85 % 1024,2 hPa 0,0 mm - 9,7 km/h 19,4 km/h SW 0,0 W/qm 0,0 nein 18:30
18:352,2 °C 2,8 °C 3,3 °C 85 % 1024,2 hPa 0,0 mm - 9,7 km/h 19,4 km/h SSW 0,0 W/qm 0,0 nein 18:35
18:402,2 °C 2,8 °C 3,3 °C 85 % 1024,2 hPa 0,0 mm - 9,7 km/h 27,4 km/h SO 0,0 W/qm 0,0 nein 18:40
18:452,2 °C 2,8 °C 3,3 °C 85 % 1024,2 hPa 0,0 mm - 9,7 km/h 27,4 km/h SW 0,0 W/qm 0,0 nein 18:45
18:502,2 °C 2,8 °C 3,3 °C 85 % 1024,2 hPa 0,0 mm - 9,7 km/h 27,4 km/h S 0,0 W/qm 0,0 nein 18:50
18:552,2 °C 2,8 °C 3,3 °C 85 % 1024,2 hPa 0,0 mm - 9,7 km/h 24,1 km/h WNW 0,0 W/qm 0,0 nein 18:55
19:002,2 °C 2,8 °C 3,3 °C 85 % 1024,3 hPa 0,0 mm - 7,9 km/h 24,1 km/h WSW 0,0 W/qm 0,0 nein 19:00
19:052,2 °C 2,8 °C 3,3 °C 85 % 1024,3 hPa 0,0 mm 0,3 mm 7,9 km/h 20,9 km/h SW 0,0 W/qm 0,0 nein 19:05
19:102,2 °C 2,8 °C 3,3 °C 85 % 1024,3 hPa 0,0 mm 0,3 mm 7,9 km/h 28,8 km/h WSW 0,0 W/qm 0,0 nein 19:10
19:152,2 °C 2,8 °C 3,3 °C 85 % 1024,2 hPa 0,0 mm - 7,9 km/h 28,8 km/h SSO 0,0 W/qm 0,0 nein 19:15
19:202,3 °C 2,8 °C 3,3 °C 85 % 1024,2 hPa 0,0 mm - 6,5 km/h 28,8 km/h WSW 0,0 W/qm 0,0 nein 19:20
19:252,2 °C 2,8 °C 3,3 °C 85 % 1024,3 hPa 0,0 mm - 4,7 km/h 20,9 km/h SW 0,0 W/qm 0,0 nein 19:25
19:302,2 °C 2,8 °C 3,3 °C 85 % 1024,3 hPa 0,0 mm - 6,5 km/h 20,9 km/h WSW 0,0 W/qm 0,0 nein 19:30
19:352,2 °C 2,8 °C 3,3 °C 85 % 1024,2 hPa 0,0 mm - 7,9 km/h 17,6 km/h S 0,0 W/qm 0,0 nein 19:35
19:402,3 °C 2,8 °C 3,3 °C 85 % 1024,2 hPa 0,0 mm - 6,5 km/h 17,6 km/h SW 0,0 W/qm 0,0 nein 19:40
19:452,3 °C 2,8 °C 3,3 °C 85 % 1024,1 hPa 0,0 mm - 6,5 km/h 16,2 km/h SSW 0,0 W/qm 0,0 nein 19:45
19:502,3 °C 2,8 °C 3,3 °C 85 % 1024,1 hPa 0,0 mm - 6,5 km/h 16,2 km/h S 0,0 W/qm 0,0 nein 19:50
19:552,3 °C 2,8 °C 3,3 °C 85 % 1024,1 hPa 0,0 mm - 7,9 km/h 16,2 km/h SSW 0,0 W/qm 0,0 nein 19:55
UhrzeitTemperaturBoden 10cmBoden 20cmFeuchteLuftdruckNiederschlagEvapotranspirationWindWindböenWindrichtungSolarstrahlungUV-IndexSonne?Uhrzeit
20:002,3 °C 2,8 °C 3,3 °C 85 % 1024,1 hPa 0,0 mm - 7,9 km/h 19,4 km/h WSW 0,0 W/qm 0,0 nein 20:00
20:052,3 °C 2,8 °C 3,3 °C 85 % 1024,1 hPa 0,0 mm 0,3 mm 6,5 km/h 24,1 km/h SSW 0,0 W/qm 0,0 nein 20:05
20:102,3 °C 2,8 °C 3,3 °C 85 % 1024,2 hPa 0,0 mm 0,3 mm 7,9 km/h 24,1 km/h SW 0,0 W/qm 0,0 nein 20:10
20:152,3 °C 2,8 °C 3,3 °C 85 % 1024,1 hPa 0,0 mm - 9,7 km/h 24,1 km/h SW 0,0 W/qm 0,0 nein 20:15
20:202,3 °C 2,8 °C 3,3 °C 85 % 1024,1 hPa 0,0 mm - 9,7 km/h 27,4 km/h W 0,0 W/qm 0,0 nein 20:20
20:252,3 °C 2,8 °C 3,3 °C 86 % 1024,1 hPa 0,0 mm - 9,7 km/h 27,4 km/h SSW 0,0 W/qm 0,0 nein 20:25
20:302,3 °C 2,8 °C 3,3 °C 86 % 1024,2 hPa 0,0 mm - 9,7 km/h 27,4 km/h SSW 0,0 W/qm 0,0 nein 20:30
20:352,2 °C 2,8 °C 3,3 °C 86 % 1024,3 hPa 0,0 mm - 7,9 km/h 22,7 km/h WSW 0,0 W/qm 0,0 nein 20:35
20:402,2 °C 2,8 °C 3,3 °C 86 % 1024,3 hPa 0,0 mm - 6,5 km/h 22,7 km/h SW 0,0 W/qm 0,0 nein 20:40
20:452,2 °C 2,8 °C 3,3 °C 86 % 1024,2 hPa 0,0 mm - 6,5 km/h 19,4 km/h S 0,0 W/qm 0,0 nein 20:45
20:502,2 °C 2,8 °C 3,3 °C 86 % 1024,1 hPa 0,0 mm - 7,9 km/h 19,4 km/h SSW 0,0 W/qm 0,0 nein 20:50
20:552,2 °C 2,8 °C 3,3 °C 86 % 1024,1 hPa 0,0 mm - 7,9 km/h 19,4 km/h S 0,0 W/qm 0,0 nein 20:55
21:002,2 °C 2,8 °C 3,3 °C 86 % 1024,2 hPa 0,0 mm - 4,7 km/h 19,4 km/h SSW 0,0 W/qm 0,0 nein 21:00
21:052,2 °C 2,8 °C 3,3 °C 86 % 1024,1 hPa 0,0 mm 0,3 mm 4,7 km/h 14,4 km/h WSW 0,0 W/qm 0,0 nein 21:05
21:102,2 °C 2,8 °C 3,3 °C 86 % 1023,9 hPa 0,0 mm 0,3 mm 6,5 km/h 13,0 km/h SSO 0,0 W/qm 0,0 nein 21:10
21:152,2 °C 2,8 °C 3,3 °C 86 % 1023,9 hPa 0,0 mm - 6,5 km/h 19,4 km/h WSW 0,0 W/qm 0,0 nein 21:15
21:202,2 °C 2,8 °C 3,3 °C 86 % 1024,1 hPa 0,0 mm - 7,9 km/h 19,4 km/h SSW 0,0 W/qm 0,0 nein 21:20
21:252,2 °C 2,8 °C 3,3 °C 85 % 1024,1 hPa 0,0 mm - 9,7 km/h 20,9 km/h SO 0,0 W/qm 0,0 nein 21:25
21:302,2 °C 2,8 °C 3,3 °C 85 % 1024,2 hPa 0,0 mm - 9,7 km/h 24,1 km/h SW 0,0 W/qm 0,0 nein 21:30
21:352,2 °C 2,8 °C 3,3 °C 85 % 1024,2 hPa 0,0 mm - 6,5 km/h 24,1 km/h SO 0,0 W/qm 0,0 nein 21:35
21:402,2 °C 2,8 °C 3,3 °C 85 % 1024,3 hPa 0,0 mm - 3,2 km/h 24,1 km/h WSW 0,0 W/qm 0,0 nein 21:40
21:452,2 °C 2,8 °C 3,3 °C 85 % 1024,3 hPa 0,0 mm - 3,2 km/h 22,7 km/h SW 0,0 W/qm 0,0 nein 21:45
21:502,2 °C 2,8 °C 3,3 °C 85 % 1024,2 hPa 0,0 mm - 4,7 km/h 16,2 km/h SW 0,0 W/qm 0,0 nein 21:50
21:552,2 °C 2,8 °C 3,3 °C 85 % 1024,3 hPa 0,0 mm - 6,5 km/h 14,4 km/h SSW 0,0 W/qm 0,0 nein 21:55
UhrzeitTemperaturBoden 10cmBoden 20cmFeuchteLuftdruckNiederschlagEvapotranspirationWindWindböenWindrichtungSolarstrahlungUV-IndexSonne?Uhrzeit
22:002,2 °C 2,8 °C 3,3 °C 85 % 1024,1 hPa 0,0 mm - 6,5 km/h 16,2 km/h W 0,0 W/qm 0,0 nein 22:00
22:052,2 °C 2,8 °C 3,3 °C 85 % 1023,9 hPa 0,0 mm 0,3 mm 6,5 km/h 16,2 km/h W 0,0 W/qm 0,0 nein 22:05
22:102,2 °C 2,8 °C 3,3 °C 85 % 1024,2 hPa 0,0 mm 0,3 mm 6,5 km/h 20,9 km/h SW 0,0 W/qm 0,0 nein 22:10
22:152,1 °C 2,8 °C 3,3 °C 85 % 1024,1 hPa 0,0 mm - 6,5 km/h 20,9 km/h SSW 0,0 W/qm 0,0 nein 22:15
22:202,1 °C 2,8 °C 3,3 °C 85 % 1024,1 hPa 0,0 mm - 7,9 km/h 20,9 km/h SW 0,0 W/qm 0,0 nein 22:20
22:252,1 °C 2,8 °C 3,3 °C 85 % 1024,1 hPa 0,0 mm - 7,9 km/h 27,4 km/h S 0,0 W/qm 0,0 nein 22:25
22:302,1 °C 2,8 °C 3,3 °C 85 % 1024,1 hPa 0,0 mm - 6,5 km/h 27,4 km/h SW 0,0 W/qm 0,0 nein 22:30
22:352,1 °C 2,8 °C 3,3 °C 85 % 1024,1 hPa 0,0 mm - 6,5 km/h 27,4 km/h WSW 0,0 W/qm 0,0 nein 22:35
22:402,1 °C 2,8 °C 3,3 °C 85 % 1024,0 hPa 0,0 mm - 6,5 km/h 16,2 km/h SW 0,0 W/qm 0,0 nein 22:40
22:452,1 °C 2,8 °C 3,3 °C 85 % 1024,0 hPa 0,0 mm - 6,5 km/h 16,2 km/h SW 0,0 W/qm 0,0 nein 22:45
22:502,1 °C 2,8 °C 3,3 °C 85 % 1023,8 hPa 0,0 mm - 6,5 km/h 16,2 km/h WSW 0,0 W/qm 0,0 nein 22:50
22:552,1 °C 2,8 °C 3,3 °C 85 % 1023,7 hPa 0,0 mm - 6,5 km/h 16,2 km/h SSW 0,0 W/qm 0,0 nein 22:55
23:002,1 °C 2,8 °C 3,3 °C 85 % 1023,8 hPa 0,0 mm - 7,9 km/h 16,2 km/h SSW 0,0 W/qm 0,0 nein 23:00
23:052,1 °C 2,8 °C 3,3 °C 85 % 1023,5 hPa 0,0 mm 0,3 mm 6,5 km/h 22,7 km/h SW 0,0 W/qm 0,0 nein 23:05
23:102,1 °C 2,8 °C 3,3 °C 85 % 1023,7 hPa 0,0 mm 0,3 mm 7,9 km/h 22,7 km/h SSO 0,0 W/qm 0,0 nein 23:10
23:152,1 °C 2,8 °C 3,3 °C 85 % 1023,7 hPa 0,0 mm - 9,7 km/h 25,9 km/h SW 0,0 W/qm 0,0 nein 23:15
23:202,1 °C 2,8 °C 3,3 °C 85 % 1023,9 hPa 0,0 mm - 6,5 km/h 25,9 km/h SW 0,0 W/qm 0,0 nein 23:20
23:252,1 °C 2,8 °C 3,3 °C 85 % 1023,8 hPa 0,0 mm - 6,5 km/h 22,7 km/h SW 0,0 W/qm 0,0 nein 23:25
23:302,1 °C 2,8 °C 3,3 °C 85 % 1023,8 hPa 0,0 mm - 7,9 km/h 22,7 km/h S 0,0 W/qm 0,0 nein 23:30
23:352,1 °C 2,8 °C 3,3 °C 85 % 1023,8 hPa 0,0 mm - 6,5 km/h 22,7 km/h WSW 0,0 W/qm 0,0 nein 23:35
23:402,1 °C 2,8 °C 3,3 °C 85 % 1023,5 hPa 0,0 mm - 7,9 km/h 22,7 km/h WNW 0,0 W/qm 0,0 nein 23:40
23:452,2 °C 2,8 °C 3,3 °C 85 % 1023,4 hPa 0,0 mm - 9,7 km/h 19,4 km/h WSW 0,0 W/qm 0,0 nein 23:45
23:502,2 °C 2,8 °C 3,3 °C 86 % 1023,4 hPa 0,0 mm - 7,9 km/h 20,9 km/h SW 0,0 W/qm 0,0 nein 23:50
23:552,2 °C 2,8 °C 3,3 °C 86 % 1023,4 hPa 0,0 mm - 7,9 km/h 20,9 km/h SW 0,0 W/qm 0,0 nein 23:55
Gesamt: 0,5 °C 3,0 °C 3,6 °C 88 % 1029,3 hPa 0,0 mm 5,4 mm 3,7 km/h 10,6 km/h 0 29,0 W/qm 0,0 ja

Insgesamt 288 Zeilen mal 13 Spalten = 3744 Werte werden angezeigt.

www.wetter-rosstal.de   •   www.wetter-franken.de   •   www.lightningmaps.org   •   Start   •   Kontakt / Datenschutz   •   PC-Kümmerer